Location: Boston
(42.3580°N, 71.0600°W)
Time: 02:16:50
(UTC-04:00)

Vanguard 1 - Visible Passes

Search period start: 23 July 2018 00:00
Search period end: 02 August 2018 00:00
Orbit: 650 x 3833 km, 34.2° (Epoch: 22 July)

Date Brightness Start Highest point End Pass type
(mag) Time Alt. Az. Time Alt. Az. Time Alt. Az.
23 Jul 10.7 22:30:08 10° SW 22:35:46 29° S 22:35:46 29° S visible
24 Jul 10.8 22:50:52 10° WSW 22:55:59 31° SSW 22:55:59 31° SSW visible
25 Jul 11.5 20:49:47 10° SW 20:57:53 27° SSE 21:03:09 10° ESE visible
25 Jul 10.9 23:11:46 10° WSW 23:16:06 29° SW 23:16:06 29° SW visible
26 Jul 11.2 21:10:14 10° SW 21:18:49 33° SSE 21:23:25 14° ESE visible
26 Jul 11.2 23:32:46 10° WSW 23:36:09 24° SW 23:36:09 24° SW visible
27 Jul 10.9 21:30:57 10° SW 21:39:44 38° S 21:43:24 20° ESE visible
27 Jul 11.6 23:53:50 10° WSW 23:56:07 19° WSW 23:56:07 19° WSW visible
28 Jul 10.7 21:51:53 10° WSW 22:00:37 41° S 22:03:18 28° SE visible
29 Jul 12.0 00:14:59 10° WSW 00:16:01 14° WSW 00:16:01 14° WSW visible
29 Jul 10.4 22:12:57 10° WSW 22:21:29 43° S 22:23:10 36° SE visible
30 Jul 10.4 22:34:05 10° WSW 22:42:18 43° S 22:42:59 42° S visible
31 Jul 11.3 20:30:53 10° WSW 20:42:42 45° S 20:49:22 10° ESE visible
31 Jul 10.6 22:55:18 10° W 23:02:46 40° SSW 23:02:46 40° SSW visible
01 Aug 11.1 20:51:58 10° WSW 21:03:38 49° S 21:09:49 12° ESE visible
01 Aug 11.0 23:16:34 10° W 23:22:31 32° SW 23:22:31 32° SW visible
